ONEWEB-0245, 48778

Orbit data source: Space-Track

ONEWEB-0245, 48778 is a payload satellite owned by One Web (NAA) (UK) in LEO that was launched on Fri, 28 May 2021 UTC via a SOYUZ-2-1B launch vehicle from the Vostochny Cosmodrome (VOSTO). Payload-class satellites include a variety of spacecraft equipped with specific instruments for various scientific and technological missions. These include communications satellites like Starlink; space stations such as the ISS; scientific satellites like the Hubble; Earth observation satellites from companies like Planet Labs, Umbra, and HawkEye 360; GPS; miniature CubeSats for education and research; and military/defense satellites.

Loading next visibility...
Identifier
48778, 2021-045M
Orbit
LEO
Country
Flag of UKUK
Related business
Manufacturer
One Web
Mission
Operational Commercial Communications
Bus & Motor
ARROW, Unknown motor
Mass
148 kg wet, ~140 kg dry
Launch date (UTC)
2021-05-28 (5 years ago)
Launch vehicle
SOYUZ-2-1B
Launch site
Vostochny Cosmodrome (VOSTO)
Object type
Payload
Rocket body
Debris
Shape & HBR
Trap Box + 2 Pan, 6.7 m
Radar Cross Section
3.464 m², Large (>1 m²)

Expand to show TLE details & history
Last TLE update: 2 days ago

TLE from 2 days ago
0 ONEWEB-0245
1 48778U 21045M   26171.18485073 -.00000045  00000-0 -15227-3 0  9990
2 48778  87.9011 258.5952 0001984 105.7892 254.3457 13.15548111244776
Epoch: 2026-06-20T04:26Z
TLE epoch observation values (Epoch: 2026-06-20T04:26:11.103Z)
Latitude
-0.00002°
Longitude
-76.35417°
Altitude
1,205.074 km
Speed
7.251 km/s
True Right ascension
17h 14m 22s
True Declination
0° 00' 00"
Sunlit
Object was in full shadow at epoch
Visualization orbit readout
Latitude
Unknown
Longitude
Unknown
Altitude
Unknown
Speed
Unknown
Apparent Right ascension
Unknown
Apparent Declination
Unknown
Sunlit
N/A
Visualization observer readout
Local Sidereal Time
21:26:05
Azimuth
Unknown
Elevation
Unknown
Doppler factor
Unknown
Orbital elements
Apogee altitude
1,200.388 km
Perigee altitude
1,197.381 km
Semi-major axis
7,577.021 km
Eccentricity
0.0002
Inclination
87.9011°
RAAN
258.5952°
Arg. of periapsis
105.7892°
True anomaly
254.32381°
Mean anomaly
254.3457°
Eccentric anomaly
254.33475°
Mean motion
3.29075 °/min
Orbital period
109.4 mins
BSTAR
-0.00015227
Loading maneuver chart data...
Computing Atmospheric mass density...
Loading historical data...
Loading historical data...
Loading historical data...
Loading historical data...
Loading historical data...
Loading historical data...
Loading historical data...

Documentation

Showing up to 5 results
|